Douglas, WY

6:19 AM MDT on July 29, 2017 (GMT -0600)
Converse County

Weather History for KDGW - November, 2011

Change the Weather History Date:

Wednesday, November 9, 2011

  Actual Average Record
Temperature  
Mean Temperature 31 °F 36 °F  
Max Temperature 43 °F 50 °F 74 °F (2016)
Min Temperature 18 °F 22 °F 9 °F (2000)
Degree Days  
Heating Degree Days 34 29  
Month to date heating degree days 325 241  
Since 1 July heating degree days 1011 1108  
Cooling Degree Days 0 0  
Month to date cooling degree days 0 0  
Year to date cooling degree days 641 486  
Moisture  
Dew Point 15 °F    
Average Humidity 55    
Maximum Humidity 80    
Minimum Humidity 29    
Precipitation  
Precipitation 0.00 in 0.02 in 0.38 in (2010)
Month to date precipitation 0.21 0.24  
Year to date precipitation 12.88 12.58  
Sea Level Pressure  
Sea Level Pressure 30.48 in    
Wind  
Wind Speed 8 mph (NW)    
Max Wind Speed 21 mph    
Max Gust Speed 25 mph    
Visibility 10 miles    
Events      
T = Trace of Precipitation, MM = Missing Value Source: NWS Daily Summary

Daily Weather History Graph

Daily Weather History Graph

Search for Another Location

Airport or City:

Trip Planner

Search our weather history database for the weather conditions in past years. The results will help you decide how hot, cold, wet, or windy it might be!

Date:

Astronomy

Nov. 09, 2011 Rise Set
Actual Time 6:45 AM MST 4:44 PM MST
Civil Twilight 6:15 AM MST 5:14 PM MST
Nautical Twilight 5:41 AM MST 5:48 PM MST
Astronomical Twilight 5:08 AM MST 6:21 PM MST
Moon 3:57 PM MST (11/9) 5:43 AM MST (11/9)
Length of Visible Light 10h 59m
Length of Day
9h 59m
Waxing Gibbous, 99% of the Moon is Illuminated
Nov 9
Waxing Gibbous
Nov 10
Full
Nov 18
Last Quarter
Nov 24
New
Dec 2
First Quarter

Hourly Weather History & Observations

Time (MST) Temp. Windchill Dew Point Humidity Pressure Visibility Wind Dir Wind Speed Gust Speed Precip Events Conditions
12:53 AM 21.0 °F 11.4 °F 15.1 °F 78% 30.43 in 10.0 mi NNW 8.1 mph - N/A   Clear
1:53 AM 19.9 °F 9.3 °F 14.0 °F 78% 30.45 in 10.0 mi NNW 9.2 mph - N/A   Clear
3:53 AM 18.0 °F 11.1 °F 12.9 °F 81% 30.47 in 10.0 mi North 4.6 mph - N/A   Partly Cloudy
5:53 AM 19.9 °F 11.1 °F 14.0 °F 78% 30.53 in 10.0 mi NW 6.9 mph - N/A   Clear
7:53 AM 23.0 °F 13.9 °F 16.0 °F 74% 30.57 in 10.0 mi NW 8.1 mph - N/A   Clear
8:53 AM 30.0 °F 20.5 °F 19.0 °F 64% 30.57 in 10.0 mi NW 11.5 mph - N/A   Clear
9:53 AM 35.1 °F 24.5 °F 19.0 °F 52% 30.56 in 10.0 mi WNW 18.4 mph - N/A   Clear
10:53 AM 37.9 °F 27.9 °F 17.1 °F 43% 30.54 in 10.0 mi WNW 19.6 mph 24.2 mph N/A   Clear
11:53 AM 41.0 °F 32.5 °F 16.0 °F 36% 30.51 in 10.0 mi WNW 17.3 mph 21.9 mph N/A   Clear
12:53 PM 42.1 °F 34.9 °F 12.9 °F 31% 30.48 in 10.0 mi WNW 13.8 mph 24.2 mph N/A   Clear
1:53 PM 42.1 °F 34.9 °F 12.9 °F 31% 30.47 in 10.0 mi WNW 13.8 mph 24.2 mph N/A   Clear
2:53 PM 43.0 °F 35.4 °F 12.9 °F 30% 30.45 in 10.0 mi NW 16.1 mph 21.9 mph N/A   Clear
3:53 PM 42.1 °F 35.7 °F 14.0 °F 32% 30.44 in 10.0 mi NW 11.5 mph - N/A   Clear
4:53 PM 33.1 °F 27.7 °F 14.0 °F 46% 30.47 in 10.0 mi WNW 5.8 mph - N/A   Clear
5:53 PM 30.9 °F 26.2 °F 16.0 °F 54% 30.47 in 10.0 mi WNW 4.6 mph - N/A   Clear
6:53 PM 28.0 °F 22.8 °F 15.1 °F 58% 30.47 in 10.0 mi North 4.6 mph - N/A   Clear
7:53 PM 26.1 °F 19.4 °F 16.0 °F 66% 30.48 in 10.0 mi North 5.8 mph - N/A   Clear
8:53 PM 21.0 °F - 14.0 °F 74% 30.46 in 10.0 mi Calm Calm - N/A   Clear
9:53 PM 21.9 °F - 15.1 °F 75% 30.43 in 10.0 mi Calm Calm - N/A   Clear
10:53 PM 21.0 °F - 14.0 °F 74% 30.42 in 10.0 mi Calm Calm - N/A   Clear
11:53 PM 19.0 °F - 14.0 °F 81% 30.42 in 10.0 mi Calm Calm - N/A   Clear